Погода в Кестеле

Турция     40°11′46″N   29°11′41″E
темп.,
°C
ветер,
м/с
пор.,
м/с
влажн.,
%
обл.,
%
осадки,
мм/ч
давл.,
гПа
погр.,
м
21 июня, пн
пн2100:00+17з0192100 0.5 101113
03:00+16зюз2297100 2.5 101031
06:00+17зсз1298100 0.6 1011137
09:00+18сз119392 1.2 1012313
12:00+20з118086 0.9 1012575
15:00+22зсз327481 4.2 1011766
18:00+22сз337442 3.6 1011791
21:00+18ю11902 5.3 101211
22 июня, вт
вт2200:00+17юз11911 0.1 101211
03:00+16юз11920 0.1 101211
06:00+16ююз11912 0.1 101211
09:00+21зсз127599 0.1 1013575
12:00+24сз22607 0.1 10131341
15:00+25ссз435691 0.4 10131479
18:00+24сз22594 0.1 10131083
21:00+19ююв11794 0.1 101411
23 июня, ср
ср2300:00+18ююз11760 0.0 101411
03:00+18ю11690 0.0 101411
06:00+17ю11720 0.0 101411
09:00+23с01590 0.0 1015450
12:00+27зсз22510 0.0 10141227
15:00+28сз43450 0.0 10141553
18:00+27сз23531 0.0 1014917
21:00+21юз11690 0.0 101411
24 июня, чт
чт2400:00+20ююз11680 0.0 101511
03:00+19юз22740 0.1 101514
06:00+19ююз11771 0.0 101512
09:00+24зсз22650 0.0 1015426
12:00+28ссз23525 0.0 10151380
15:00+29с33470 0.0 10141634
18:00+28ссз33540 0.0 10151381
21:00+22в11760 0.1 101511
25 июня, пт
пт2500:00+20юв11800 0.0 101511
03:00+19ююв11840 0.0 101511
06:00+18ююв11840 0.0 101511
09:00+24всв11620 0.0 1015489
12:00+28ссв22460 0.0 10151218
15:00+29ссв33410 0.0 10141453
18:00+28ссв33470 0.0 10141153
21:00+22ююв01700 0.0 101511